Theta_e
319 319 319 319 320 320 320 321 322 322 321 323 325 324 324 323 318 320 325 322 319 317 313 311 310 308 307 307 307 306 305 305 304 304 304 304 304 303 303 303 304 304 304 305 305 305 305 304 304 305 305 305 305 305 306 307 307 307 307 308 308 309 309 309 309 310 310 311 311 311 312 313 316 318 319 320 320 321 321 323 325 326 327 328 328 329 329
318 318 318 318 319 319 319 320 320 321 322 323 324 323 323 324 323 323 322 320 317 314 311 309 308 307 306 306 305 305 304 304 304 303 303 304 303 303 303 304 304 304 304 304 305 305 305 304 304 305 305 304 304 305 305 306 307 307 307 307 308 309 309 309 309 309 309 309 310 311 312 312 313 315 317 319 320 320 321 322 323 325 326 327 327 328 329
318 318 318 318 318 318 318 318 318 320 321 321 322 322 321 322 322 320 318 316 313 310 308 307 306 306 306 305 304 304 303 303 303 303 303 303 303 303 303 304 304 304 304 304 304 305 304 304 304 304 305 305 305 305 305 305 306 306 306 307 308 308 308 308 308 308 308 308 309 309 310 311 312 313 314 316 318 320 321 322 322 323 324 325 326 327 328
318 318 318 319 319 318 317 316 316 318 318 318 318 318 319 319 319 316 315 315 311 308 307 306 306 305 305 304 304 303 303 303 303 303 303 303 303 303 303 303 303 303 304 304 304 304 304 304 304 304 304 305 305 305 305 304 305 305 306 306 307 307 308 308 308 307 307 308 308 308 308 309 310 311 312 313 315 317 319 321 322 323 323 324 325 326 328
317 317 318 319 319 319 319 315 313 315 316 315 316 316 317 317 317 316 316 314 308 306 306 305 305 305 304 303 303 303 302 303 303 302 303 303 303 303 303 303 303 303 303 303 303 303 304 304 304 304 304 304 304 305 305 304 305 305 306 306 307 307 307 307 307 307 307 307 307 307 307 307 308 309 310 311 312 314 316 318 319 321 323 324 325 326 327
317 317 318 319 320 320 318 312 311 314 315 315 315 315 315 315 315 314 313 309 306 306 306 305 304 304 303 302 302 302 302 302 302 302 303 303 303 303 303 303 303 303 303 303 303 303 303 303 303 303 304 304 304 304 305 305 305 305 306 306 306 306 306 307 307 307 306 306 306 306 306 306 307 307 308 309 310 311 313 314 316 318 320 322 324 324 325
318 317 318 320 321 318 313 311 311 313 314 313 312 312 312 312 311 310 308 306 305 306 305 304 303 302 302 302 302 302 302 302 302 302 302 303 303 303 303 303 303 303 303 303 303 303 303 303 303 303 304 304 304 304 304 304 304 305 305 305 306 306 306 306 306 306 306 306 306 306 305 306 306 306 307 308 308 309 310 311 313 314 316 319 321 322 323
318 318 319 320 318 313 311 311 312 313 313 312 312 311 310 310 309 308 306 305 305 304 303 302 302 301 301 302 301 301 302 302 302 302 302 302 303 302 302 302 303 302 302 302 302 302 302 302 303 303 303 304 304 304 304 304 304 304 304 305 305 305 305 305 305 305 305 305 305 305 305 305 305 305 306 306 307 307 307 308 309 311 313 315 317 319 320
318 318 317 316 314 313 312 311 311 312 313 314 314 313 309 308 309 308 305 304 304 303 302 302 302 302 302 301 301 301 301 302 302 302 302 302 302 302 302 302 302 302 302 302 302 302 301 302 302 303 303 303 303 304 303 304 303 303 304 304 304 305 305 305 305 305 305 305 305 305 305 305 304 305 305 306 306 306 306 307 308 308 310 311 313 315 317
316 317 316 315 316 317 315 312 311 312 313 314 313 313 310 307 307 307 305 304 303 303 302 302 302 303 303 302 301 301 301 301 301 301 302 301 301 302 302 301 302 301 301 301 301 301 301 301 302 302 302 302 303 303 303 303 303 303 303 303 303 304 304 304 304 304 304 304 304 304 304 304 304 304 304 305 305 305 306 306 307 307 308 309 310 311 313
316 317 318 317 318 316 314 312 312 313 313 313 313 315 313 307 305 306 306 305 304 303 303 303 304 306 305 302 301 301 301 301 301 301 301 301 301 301 301 301 301 301 301 301 301 301 301 301 301 302 302 302 302 302 302 303 303 303 303 302 302 303 303 303 303 303 304 304 304 304 304 304 304 303 303 304 304 305 305 305 306 306 306 307 308 310 311
316 317 317 316 314 312 312 312 312 312 312 312 314 317 314 307 305 305 305 304 304 303 304 304 305 307 306 302 301 301 301 301 301 301 301 301 300 300 301 301 301 301 301 301 301 301 301 301 301 301 301 301 302 302 302 302 302 303 302 302 302 302 302 302 302 303 303 303 304 304 304 304 304 303 303 303 304 304 304 304 305 305 305 305 306 308 309
316 316 316 314 311 310 312 312 312 312 312 313 315 317 313 307 305 305 304 304 303 303 304 305 305 305 304 302 301 301 301 301 301 300 300 300 300 300 300 300 301 301 301 301 301 301 301 301 301 301 301 301 301 301 301 302 302 302 302 302 302 302 302 302 302 302 302 302 303 303 303 303 303 303 303 303 303 303 304 303 304 304 304 304 304 305 307
315 315 315 314 311 310 311 312 311 312 313 313 314 312 309 307 306 305 304 304 304 304 305 305 303 302 302 301 301 301 301 301 300 300 300 300 300 300 300 301 301 301 301 301 301 301 300 300 301 301 301 301 301 301 301 301 301 301 301 301 302 302 302 302 301 301 301 301 302 302 302 302 303 303 303 302 302 302 303 303 303 303 303 304 304 304 305
314 314 314 314 313 311 310 311 311 312 313 312 310 309 308 308 306 305 304 304 304 304 304 303 302 302 301 301 301 301 301 301 301 301 301 301 301 301 301 301 301 301 301 301 300 300 300 300 300 300 300 300 300 300 300 300 300 301 301 301 301 301 301 301 301 301 301 301 301 301 301 301 302 302 302 302 302 301 301 302 303 303 303 303 303 303 304
313 315 313 312 311 311 311 312 311 311 310 310 309 309 308 307 306 306 305 305 304 304 303 302 302 302 301 301 301 301 301 301 301 301 301 301 301 301 300 300 300 300 300 300 300 300 300 300 300 300 300 300 300 300 300 300 300 300 300 300 301 301 301 301 301 301 301 301 301 301 301 301 301 301 301 301 301 301 301 301 301 302 302 302 302 302 302
310 311 309 307 308 309 310 310 310 310 309 309 309 309 308 307 306 306 306 305 304 303 303 302 302 301 301 301 301 301 301 301 301 301 301 301 301 300 300 300 300 300 300 300 300 300 300 300 300 300 300 299 299 300 299 299 299 299 300 300 300 300 300 300 301 301 301 301 301 301 301 300 300 300 300 300 300 300 301 300 300 300 300 300 300 300 301
306 307 306 306 307 308 308 308 309 309 308 309 309 308 308 307 307 306 306 305 304 303 303 302 302 302 302 302 302 302 301 301 301 301 300 300 300 300 300 300 300 300 300 300 300 300 300 300 300 300 300 299 299 299 299 299 299 299 299 299 300 300 300 300 300 300 300 301 301 301 300 300 300 300 300 300 299 299 300 300 300 300 299 299 299 299 299
309 308 306 305 307 307 307 307 307 307 308 308 308 308 307 307 306 306 305 304 303 303 303 303 302 302 302 302 302 301 301 301 300 300 300 299 299 299 298 298 299 299 299 299 300 300 299 299 300 300 300 300 299 299 299 299 299 299 299 299 299 299 299 299 299 300 300 300 300 301 300 300 299 299 300 300 299 298 298 299 299 299 299 299 299 299 298
309 307 305 305 306 306 306 307 306 306 307 307 307 307 306 306 306 305 304 303 303 303 303 302 302 302 302 302 301 301 300 300 299 299 299 298 298 298 297 296 297 298 298 299 299 299 299 299 299 300 300 299 299 299 299 299 299 299 299 299 299 299 299 299 299 299 299 300 300 301 301 300 300 299 299 299 299 298 297 297 298 299 299 299 299 299 298
306 305 304 305 305 305 305 306 305 305 305 305 305 305 305 305 305 304 304 303 303 303 302 302 302 302 301 301 300 300 300 299 298 298 298 298 298 297 296 295 295 296 297 299 299 299 299 299 299 299 299 299 299 299 299 299 299 299 299 299 298 299 299 299 298 299 299 299 300 300 300 301 300 299 299 298 298 297 297 297 297 298 298 298 299 299 298
306 306 306 306 307 306 304 304 304 304 304 305 305 305 305 305 304 304 303 303 303 302 302 302 302 301 301 300 299 299 299 298 298 298 298 298 297 296 296 296 296 296 297 298 298 298 298 298 298 298 298 298 299 299 299 299 299 299 299 299 298 298 298 298 298 298 298 298 299 299 300 300 300 300 300 299 298 297 297 297 297 297 298 298 298 299 298
309 308 307 308 309 306 304 304 304 304 305 305 305 305 305 304 304 303 303 303 302 302 301 301 300 300 300 299 299 298 298 298 298 298 297 297 296 295 295 296 296 296 296 297 297 297 298 298 298 297 297 298 299 299 299 299 299 299 299 299 298 298 298 298 298 298 298 298 298 298 299 299 300 300 300 300 299 298 298 297 297 297 298 298 299 299 299
309 308 307 308 307 305 304 304 304 304 305 305 305 304 304 304 303 303 303 302 302 301 300 300 299 299 300 299 298 298 298 298 297 297 296 295 295 295 295 295 295 296 296 296 297 297 297 297 297 297 297 298 299 299 299 299 299 298 299 299 299 298 298 298 298 298 298 298 297 298 298 298 298 299 299 299 299 299 299 298 298 297 297 298 299 299 299
308 307 307 306 305 304 304 304 304 304 304 304 304 304 303 303 303 302 302 301 300 300 300 300 299 299 299 299 298 298 298 297 296 295 294 294 294 295 295 294 294 295 296 297 297 296 296 296 296 297 297 297 298 299 299 299 298 298 299 299 299 298 298 298 298 298 298 298 297 297 297 297 297 298 298 299 299 299 299 299 298 298 297 297 298 299 299
307 306 306 305 304 304 304 304 304 304 304 304 303 303 303 302 302 301 300 299 299 299 300 300 300 299 299 299 299 299 298 296 295 295 295 295 294 294 294 293 293 295 297 297 296 295 294 295 296 296 296 296 297 298 299 298 298 298 299 299 299 298 297 298 298 298 298 298 298 297 297 297 297 297 298 298 298 299 299 299 299 298 298 297 297 298 298
305 305 305 304 304 304 304 304 304 303 303 303 303 302 302 301 300 300 300 300 300 299 299 299 299 299 299 299 299 298 297 296 295 296 295 294 293 293 293 293 294 296 297 297 296 295 295 295 296 296 296 296 297 298 298 298 298 298 298 299 299 298 298 298 298 298 298 298 298 297 297 297 297 297 297 298 298 298 298 298 298 298 298 297 297 297 297
305 305 305 305 304 304 304 303 303 303 303 302 302 301 301 300 300 300 300 300 300 300 299 299 299 299 299 299 299 299 298 297 296 296 295 294 293 292 293 294 295 296 296 297 296 296 296 296 296 296 296 296 296 297 298 299 298 298 298 298 298 298 298 298 298 298 298 298 298 297 297 297 297 297 297 297 297 298 298 298 298 298 298 298 297 297 297
305 305 304 304 304 303 302 302 302 302 301 301 300 299 299 299 299 299 299 299 300 300 299 299 300 300 300 300 300 299 299 298 297 296 295 294 293 293 293 294 295 296 297 297 297 297 297 297 296 296 295 295 296 297 298 298 298 298 298 298 298 298 298 298 298 299 299 298 298 297 297 297 297 297 297 297 297 297 297 297 297 297 297 297 297 297 297
304 304 304 303 302 302 302 301 301 300 300 299 299 299 299 299 299 299 299 299 300 300 299 300 300 300 300 300 300 300 299 298 297 296 295 295 294 293 294 295 296 297 297 297 297 297 297 297 297 296 295 295 295 296 297 298 298 298 298 298 298 298 297 296 297 298 298 298 298 297 297 297 297 297 297 297 297 297 297 297 297 297 297 297 297 297 297
304 303 303 302 301 301 300 300 300 299 299 299 299 299 299 299 300 300 300 300 300 300 300 300 300 300 300 300 300 300 299 299 298 297 296 296 295 295 294 295 296 296 296 296 296 296 297 297 297 295 294 294 295 296 296 298 298 298 298 298 298 298 297 296 296 297 298 298 298 298 297 297 297 297 297 296 296 296 296 296 296 296 296 296 296 297 296
302 302 301 300 300 300 299 299 299 299 299 300 300 300 300 300 300 300 300 300 301 301 300 300 301 301 301 300 300 299 299 299 298 297 297 297 297 296 295 295 295 296 296 296 297 297 297 297 297 295 294 295 295 295 296 297 297 298 298 298 298 298 297 296 296 297 298 298 298 298 297 297 297 297 297 296 296 296 296 296 295 296 296 296 296 296 295
301 301 300 300 300 300 299 299 300 300 300 300 300 300 300 300 300 300 300 301 301 301 301 301 301 301 301 300 300 299 299 299 298 298 297 297 297 297 296 295 295 296 296 297 297 297 297 297 297 296 295 295 295 295 295 296 296 297 297 297 297 297 297 296 296 297 297 298 298 297 297 297 297 297 296 296 296 296 295 295 295 295 295 296 296 295 295
301 300 300 300 300 300 300 300 300 300 300 300 300 301 301 301 301 301 301 301 301 301 301 301 301 300 300 300 299 299 299 298 298 298 297 297 297 297 297 296 295 296 296 297 298 298 298 297 297 296 295 295 295 295 294 295 296 296 295 296 296 295 296 297 296 296 297 297 297 297 297 297 296 296 296 296 296 296 295 295 295 295 295 295 295 295 295
300 300 300 300 300 300 300 300 300 301 301 301 301 301 301 301 301 301 301 301 301 301 301 301 300 300 299 299 299 299 298 298 298 298 298 297 297 297 297 297 296 297 297 298 298 298 298 298 298 297 296 295 295 294 294 294 295 295 295 295 295 295 295 296 296 296 296 297 297 297 297 297 296 296 296 296 296 296 295 295 295 295 295 295 295 294 294
300 300 300 300 300 300 301 301 301 301 301 301 301 301 301 301 301 301 301 301 301 301 301 300 300 299 299 300 299 299 298 298 299 298 297 297 297 297 297 297 297 298 298 299 298 298 298 298 298 298 297 296 295 295 294 294 294 295 295 295 295 295 294 295 295 295 295 297 297 297 297 297 296 296 296 296 296 296 295 295 295 295 295 295 295 294 294
300 301 301 301 301 301 301 301 301 301 301 301 301 301 301 301 301 301 301 301 301 301 301 300 300 300 300 300 299 299 299 299 298 298 297 297 297 297 297 297 298 298 298 299 299 298 298 298 298 298 298 297 296 296 295 293 293 295 296 296 296 295 294 294 294 293 294 296 297 297 296 297 297 296 296 296 296 296 295 295 295 295 295 295 294 294 294
300 301 301 301 301 301 301 301 301 301 301 301 301 301 301 301 301 301 301 301 301 301 301 300 300 300 299 299 299 299 299 298 298 297 297 297 298 298 297 298 298 298 299 299 299 298 298 298 298 298 298 297 296 295 295 293 293 295 296 296 296 296 295 294 293 292 293 295 297 297 296 297 297 296 296 296 296 296 296 295 295 295 295 295 294 294 294
301 301 301 301 301 301 301 301 301 301 301 301 301 301 301 301 300 300 300 301 301 300 300 300 300 299 299 299 299 298 298 298 298 298 298 298 298 298 298 298 299 299 299 298 298 298 298 298 298 298 298 297 296 295 294 294 294 295 296 296 296 296 295 295 293 292 292 293 295 295 296 296 296 296 296 296 296 296 295 295 295 295 295 295 295 294 294
301 301 301 301 301 301 301 301 301 301 301 301 301 301 300 300 300 300 300 300 300 299 300 300 300 299 299 299 299 299 298 298 298 298 298 298 298 298 298 299 299 299 298 298 298 298 298 298 298 298 297 296 296 295 295 294 295 296 296 296 296 296 295 294 294 293 292 292 293 294 295 296 296 296 296 296 296 296 295 295 295 295 295 295 295 294 294
301 301 301 301 301 301 301 301 301 301 301 301 301 300 300 300 300 300 300 300 299 299 300 300 300 300 300 300 300 300 300 299 299 298 298 298 298 299 299 299 299 299 298 298 298 298 297 297 297 297 297 296 296 295 295 295 295 296 296 296 296 295 295 294 293 293 292 292 292 293 294 295 295 295 295 295 295 296 295 295 295 295 295 295 295 294 294
301 301 301 301 301 301 301 301 301 301 301 301 301 300 300 300 300 300 300 300 300 299 300 300 300 300 300 300 300 300 300 300 300 299 299 299 299 299 299 299 299 299 298 298 298 297 297 297 297 297 297 296 296 295 295 296 296 296 296 296 296 295 295 294 293 293 293 293 293 293 293 294 294 295 295 295 295 295 296 296 296 296 295 295 295 294 294
301 301 301 301 301 301 301 301 301 301 300 301 301 300 300 300 300 300 300 300 300 300 300 300 299 299 299 300 300 300 300 300 300 299 299 299 299 299 299 300 299 299 298 298 297 298 298 298 298 297 296 296 296 295 295 296 296 296 296 296 295 295 294 294 293 293 293 293 293 293 293 293 294 294 295 295 295 295 296 295 295 295 295 295 295 295 294
301 301 301 301 301 301 301 301 301 301 301 300 300 300 300 300 300 299 299 299 299 299 300 300 300 299 300 300 299 300 300 300 300 300 300 300 300 299 299 299 299 299 298 298 298 298 298 298 297 297 296 296 295 295 295 296 296 296 296 296 295 295 294 294 294 294 293 294 294 294 294 294 294 294 295 295 295 295 295 295 295 295 295 295 295 295 294
301 300 301 301 301 301 301 301 301 301 301 300 300 300 300 300 300 299 299 299 299 299 300 300 300 300 300 300 300 300 300 300 300 300 300 300 300 300 299 299 298 298 298 298 297 298 298 298 297 296 296 295 295 295 295 296 296 296 296 296 295 295 294 294 294 294 294 294 294 294 294 294 294 294 295 295 295 295 295 294 294 294 294 295 295 295 294
300 300 301 301 301 300 301 301 301 301 301 300 300 299 300 300 300 299 299 300 300 300 300 300 300 300 300 300 300 300 300 300 300 300 300 300 300 300 299 299 298 298 298 297 297 298 298 297 297 296 296 296 296 296 296 296 296 296 296 296 295 295 294 294 294 294 295 294 294 294 294 294 294 294 295 295 295 295 294 294 294 294 294 295 295 295 294
301 301 301 301 301 301 301 301 301 301 301 301 300 300 300 300 300 300 300 300 300 300 300 299 299 300 300 300 300 300 300 300 300 299 299 299 299 298 298 298 297 297 297 297 296 297 297 297 297 297 297 296 296 296 296 296 296 296 296 296 295 295 295 295 295 295 294 294 294 294 294 294 294 294 295 295 295 295 294 294 294 294 294 294 294 294 294
302 302 302 301 301 301 301 301 301 301 301 300 300 300 300 300 300 300 300 299 299 300 300 299 299 299 299 299 299 299 299 300 300 300 299 299 298 297 297 296 295 295 295 295 295 295 295 296 296 297 296 296 296 296 296 296 296 296 296 296 295 295 295 295 295 294 294 294 294 294 294 294 294 294 294 294 294 294 294 294 294 294 294 294 294 294 294
301 301 301 301 301 301 300 300 300 300 300 300 300 300 300 300 300 300 300 299 299 299 299 299 299 299 298 298 299 299 298 298 298 299 299 298 297 296 295 294 293 293 294 295 295 294 295 296 296 296 296 296 296 296 296 296 296 296 295 295 295 295 294 294 294 294 293 293 294 294 294 294 294 294 294 294 294 294 294 294 294 294 294 294 294 294 294
301 301 300 300 300 300 300 300 300 300 300 300 300 300 300 300 300 300 299 299 299 299 299 299 299 299 299 298 298 298 297 297 297 297 297 296 295 294 294 293 293 293 293 294 294 294 294 295 295 295 295 295 295 295 294 294 294 294 294 294 294 294 294 294 294 293 293 293 293 294 294 294 294 293 293 293 293 293 293 293 293 294 294 294 294 294 294
300 300 300 300 300 300 300 300 300 300 300 300 300 300 299 299 299 299 299 299 299 299 299 299 299 299 299 298 298 297 296 296 296 295 295 294 294 293 293 293 292 292 292 292 293 293 293 293 293 292 292 292 292 292 292 291 291 291 291 292 293 294 294 294 293 293 293 293 293 293 294 293 293 293 293 293 292 292 292 292 291 292 293 294 294 293 293
300 300 300 300 300 300 300 300 300 300 300 300 300 299 299 299 299 299 299 299 299 299 299 299 299 299 298 298 298 297 296 295 295 294 294 293 293 293 293 292 292 292 292 292 292 292 292 292 291 291 291 291 291 291 291 291 291 291 291 291 292 293 293 293 293 292 292 292 292 293 293 293 293 292 292 292 292 292 292 291 290 290 292 293 293 293 293
Wind_Speed
10 8 8 8 10 12 11 10 9 7 5 3 4 3 3 0 4 5 10 15 15 14 14 13 13 13 14 16 15 14 15 15 13 14 15 16 15 16 16 15 15 14 13 12 13 13 14 15 16 16 17 18 18 19 19 19 20 20 17 15 15 16 15 15 16 16 17 17 17 19 19 16 14 14 14 14 15 14 14 15 16 16 17 17 19 21 21
11 9 9 10 13 14 14 13 11 10 11 10 10 9 8 8 9 11 16 17 14 12 13 14 15 16 17 18 16 16 16 14 13 14 16 16 15 15 15 13 12 12 12 12 12 12 13 14 15 15 15 16 17 19 19 19 20 21 20 17 16 17 16 16 17 16 17 18 17 18 20 19 17 14 14 14 14 13 13 14 15 16 17 18 18 19 21
9 8 9 10 13 15 16 15 12 11 13 12 12 11 11 12 13 14 18 18 12 10 14 18 18 18 18 18 17 16 15 14 13 15 16 15 14 14 13 11 10 11 11 12 12 12 13 13 14 14 14 15 16 18 19 20 20 21 21 19 17 17 17 17 18 17 18 19 19 18 19 21 20 17 15 15 14 13 12 13 15 16 18 19 19 19 20
6 7 9 12 14 16 16 14 12 10 9 9 8 6 4 6 13 16 15 12 8 10 16 18 18 18 19 18 16 16 15 14 14 15 15 14 13 13 12 11 11 11 11 12 12 12 12 13 14 14 14 15 16 17 18 20 20 19 20 19 18 17 18 18 18 18 19 19 19 19 19 21 22 21 19 17 15 13 12 13 14 16 17 18 19 20 20
5 6 8 8 8 10 9 8 8 7 8 10 9 8 7 9 12 10 7 8 10 13 16 16 16 17 18 17 15 15 16 16 15 15 15 13 13 12 12 11 11 11 11 11 12 12 12 13 13 14 14 14 16 17 17 18 18 18 19 19 18 18 18 18 18 18 20 20 20 20 21 22 23 25 24 21 18 15 13 12 13 15 16 16 17 18 19
6 7 5 3 6 6 3 3 2 2 7 11 12 12 11 9 7 7 10 13 14 14 14 15 15 16 17 16 16 16 17 16 15 15 15 13 13 12 12 12 12 11 11 11 11 12 12 13 13 13 14 14 16 16 17 18 18 18 19 18 18 18 18 18 19 19 20 21 20 21 24 23 24 27 29 27 24 20 17 14 13 13 15 15 15 15 16
7 7 6 6 6 3 2 1 2 4 9 14 16 14 11 8 10 14 17 17 15 16 17 18 20 21 19 18 17 16 15 14 14 15 14 13 13 12 12 12 11 11 11 11 11 12 12 13 13 13 14 15 16 16 17 18 19 18 18 19 18 18 18 19 19 19 20 20 20 22 25 26 27 30 32 31 29 27 24 21 17 15 14 14 14 14 16
7 6 5 5 4 3 3 5 6 8 12 14 13 12 10 8 11 15 17 16 17 21 21 21 23 23 22 20 18 15 13 13 13 14 14 13 12 12 12 11 11 11 11 11 12 12 12 13 13 14 14 14 15 16 17 18 20 19 18 19 19 19 19 19 20 21 21 20 20 22 25 27 28 31 33 33 33 31 30 27 24 21 17 14 13 14 15
4 5 4 4 4 4 3 4 5 6 6 4 5 6 6 5 8 13 16 17 19 22 22 23 23 23 21 18 15 12 12 13 13 14 13 13 12 11 11 11 11 11 11 12 12 12 13 14 14 14 14 14 15 16 17 18 20 20 20 20 20 20 19 19 20 21 22 21 21 22 24 25 26 30 32 33 33 32 30 28 26 24 21 18 15 13 14
3 6 6 5 5 4 4 6 8 6 1 1 5 8 5 4 8 14 16 17 20 22 22 23 22 18 13 10 9 11 12 12 13 13 13 12 11 11 11 11 11 11 12 12 12 13 14 14 14 14 14 15 15 16 17 18 19 20 21 22 21 21 20 19 20 20 20 20 20 21 21 21 23 26 29 31 31 31 29 26 24 21 19 18 17 15 14
5 6 6 5 4 2 4 9 11 8 5 4 6 6 3 6 11 14 16 19 21 23 23 22 18 11 7 6 9 12 13 12 13 13 12 12 11 11 10 10 11 11 11 12 12 13 14 14 15 14 14 14 15 16 17 17 18 19 21 22 22 22 21 20 20 19 18 18 19 19 19 19 19 21 23 26 28 29 28 27 24 19 16 15 15 14 13
6 5 4 4 3 2 5 10 11 9 6 5 6 5 4 11 16 17 18 19 20 22 22 18 10 4 5 10 14 15 14 13 12 11 11 11 11 11 11 11 11 11 11 11 12 12 13 13 13 14 14 14 15 16 17 18 19 19 19 20 20 21 21 21 21 20 19 18 18 18 18 18 17 18 19 22 24 25 26 27 26 23 20 17 15 13 11
5 4 4 4 3 3 7 10 10 8 6 5 4 1 8 18 21 18 18 19 19 18 17 11 6 8 13 18 19 17 15 14 13 12 12 11 11 11 11 11 10 10 10 10 11 12 12 12 13 13 14 14 15 16 17 18 19 18 18 18 19 19 20 21 22 22 21 19 18 18 18 19 18 17 17 19 20 21 22 23 24 25 24 23 21 18 14
4 4 5 5 4 4 7 9 9 6 4 2 2 7 16 25 24 20 19 19 17 15 13 13 16 20 22 22 20 18 16 15 14 13 12 11 11 10 10 10 9 8 9 10 10 11 12 12 13 13 14 15 16 17 17 18 18 17 17 18 18 18 19 20 20 22 22 21 20 20 20 20 19 18 16 16 18 19 19 19 21 22 24 25 25 24 22
3 5 6 4 3 6 11 11 8 2 1 4 11 17 21 24 23 22 21 18 16 16 18 21 23 23 23 21 19 18 17 15 14 13 12 11 11 10 9 9 9 9 9 9 10 11 11 12 14 14 15 16 16 17 17 17 16 16 17 18 18 18 19 20 20 20 21 21 21 21 21 21 21 20 19 17 16 18 19 19 19 19 20 22 23 25 25
2 4 4 1 3 10 12 8 5 5 5 11 19 23 23 23 23 23 21 17 17 19 22 24 24 23 22 21 19 19 17 15 14 13 12 11 11 10 10 9 9 9 9 9 9 10 11 12 13 14 15 16 16 16 17 16 16 16 16 17 18 18 19 19 19 19 19 20 21 21 21 22 22 22 21 19 17 17 18 19 19 19 19 19 20 22 24
3 5 5 3 7 12 11 7 9 12 13 15 19 23 24 24 22 21 20 20 20 21 23 24 23 22 22 21 19 18 17 15 14 13 12 12 11 10 9 9 8 8 8 9 9 9 10 11 12 12 13 15 15 16 16 16 16 16 15 16 17 17 18 18 19 19 18 18 19 20 21 21 21 22 22 22 20 19 19 19 19 19 19 19 18 18 19
8 10 10 8 10 13 13 12 13 14 15 17 20 22 23 22 21 20 20 21 23 23 22 23 23 22 22 21 19 18 17 16 14 14 13 12 10 9 8 7 7 7 7 8 8 9 10 10 10 11 12 13 15 15 15 15 16 16 15 16 16 17 17 18 18 18 19 18 18 19 20 21 21 21 21 22 21 20 19 20 20 19 19 19 18 18 17
5 5 7 9 11 14 14 14 15 15 15 17 19 20 21 22 21 20 21 23 25 23 21 22 23 22 21 21 19 18 17 16 15 13 12 11 9 8 7 6 6 6 7 7 8 8 9 10 10 10 10 12 13 14 15 15 15 15 15 16 16 16 17 18 17 18 19 19 18 18 19 22 23 23 21 20 21 22 22 21 20 19 19 19 19 19 18
4 6 9 11 13 14 13 13 15 16 17 17 18 19 21 22 21 21 22 24 25 22 21 22 23 23 21 19 19 18 16 15 14 12 11 10 9 7 6 6 6 6 6 7 7 8 9 9 10 10 10 11 11 13 14 15 15 15 15 16 17 16 16 17 18 18 18 19 18 17 17 19 22 25 25 21 19 21 24 24 22 20 19 18 19 20 19
8 8 11 14 14 12 11 12 13 15 17 19 20 20 21 22 23 24 24 24 23 23 23 22 23 22 20 18 17 17 15 14 13 11 10 9 8 7 7 7 7 7 7 7 8 8 9 9 10 10 11 11 11 12 13 15 15 15 15 15 16 16 16 17 18 18 18 18 18 17 17 17 19 22 24 23 21 20 21 22 22 22 20 19 18 18 20
7 7 14 15 10 8 10 13 15 16 18 21 22 23 23 24 25 26 26 24 23 23 22 21 21 21 20 17 16 16 14 13 11 10 9 8 7 7 8 8 8 8 8 8 8 8 9 10 10 11 11 11 11 11 12 14 15 15 15 15 16 16 16 16 17 18 19 19 18 17 17 17 17 18 19 21 21 21 20 20 20 20 20 20 18 16 16
7 14 19 15 10 14 17 17 18 19 21 23 24 25 25 26 26 26 27 26 25 23 21 20 20 20 19 17 16 15 13 12 10 9 9 8 8 8 8 9 9 9 9 9 9 9 9 9 10 11 12 11 11 11 11 12 14 15 15 15 16 16 15 15 16 17 18 19 19 18 17 17 16 16 16 17 19 20 20 20 19 18 18 18 17 16 14
13 19 18 12 15 21 22 21 21 22 23 25 26 26 26 27 26 26 26 26 25 24 22 20 19 19 18 16 15 14 13 11 10 10 10 9 9 9 9 9 10 10 10 10 9 9 9 9 10 10 11 11 11 11 12 12 13 14 15 15 15 15 14 14 15 16 17 18 19 19 19 18 16 15 15 15 16 17 17 18 19 18 18 16 15 15 15
19 20 17 16 22 26 25 23 24 23 23 25 27 26 26 26 26 25 26 25 24 23 22 20 19 17 17 15 14 13 12 11 11 11 11 10 10 9 9 10 11 11 11 10 9 9 9 9 9 10 10 11 10 11 11 12 12 13 13 13 14 14 14 13 14 15 16 17 18 19 19 20 18 16 15 14 14 14 15 17 17 17 17 17 16 15 14
22 22 22 24 26 27 25 25 24 23 24 26 26 26 26 26 25 26 25 24 23 23 22 20 18 16 16 15 14 13 12 13 14 12 9 9 9 9 9 11 12 12 11 10 10 11 12 10 9 8 9 10 10 10 10 11 12 12 12 12 13 13 14 13 13 14 15 16 17 18 19 19 20 18 16 14 13 13 13 14 15 15 15 15 16 16 15
23 25 27 28 26 24 24 25 25 25 25 26 26 27 26 26 26 26 24 23 22 21 20 19 18 16 15 14 14 14 13 13 13 11 9 9 9 10 11 12 14 14 11 8 10 13 14 11 8 8 9 10 10 9 9 10 11 11 11 11 11 12 13 13 12 12 13 14 15 16 17 18 19 19 17 15 13 13 12 11 12 13 13 13 13 14 14
23 24 24 25 26 26 25 25 26 26 25 26 27 27 27 26 26 25 23 22 21 19 18 17 16 15 14 13 12 13 13 12 11 10 10 10 11 11 12 12 13 13 11 7 8 11 11 10 9 8 9 9 9 9 8 8 9 10 11 11 11 11 12 12 12 12 12 12 13 14 16 16 18 19 18 16 13 13 12 11 11 12 12 12 12 11 12
23 22 21 23 27 29 27 26 26 26 25 26 27 27 27 27 26 24 22 21 19 18 17 15 13 12 12 11 10 11 11 11 10 10 11 11 11 11 11 11 11 11 9 6 7 8 9 10 9 8 9 10 9 8 7 7 8 9 10 10 10 11 12 13 13 13 13 12 12 14 15 15 15 17 18 17 15 13 12 12 12 12 12 12 12 12 11
22 22 24 26 27 28 28 27 27 27 27 28 28 26 26 25 23 22 21 19 17 16 16 14 12 11 10 10 10 10 10 10 10 10 11 11 10 9 9 8 7 6 5 5 6 6 7 8 8 8 10 10 10 8 7 6 6 7 8 9 10 11 12 13 13 13 13 13 12 12 12 13 14 16 17 17 16 15 14 13 12 13 13 13 12 12 10
25 25 26 28 28 28 27 27 27 28 28 27 26 25 24 22 21 21 19 17 16 15 14 13 11 10 10 9 9 9 10 10 10 10 10 10 9 8 7 6 4 3 3 4 5 5 6 6 7 9 10 10 10 9 8 6 6 7 7 8 10 12 13 13 13 13 13 12 12 11 11 12 13 14 14 15 16 15 15 14 13 12 12 13 12 11 9
30 29 28 28 27 27 27 27 28 28 26 24 24 23 21 20 20 19 18 16 14 14 13 12 11 10 9 9 10 10 10 9 9 9 9 8 8 7 6 5 5 4 3 4 4 5 5 5 6 8 10 10 9 9 8 7 7 7 7 8 9 10 12 14 13 13 12 12 11 10 10 11 12 12 12 14 15 15 15 15 14 13 12 12 12 10 10
31 29 28 28 28 29 28 27 26 25 24 23 22 20 19 18 17 17 16 14 12 12 12 10 10 10 9 10 10 10 10 9 9 8 8 7 7 7 6 5 4 3 3 4 4 6 5 5 6 7 8 8 8 8 8 8 7 7 7 8 9 9 11 12 13 12 11 11 11 10 9 10 11 11 11 12 13 14 15 15 14 13 13 12 11 11 11
26 26 27 28 28 29 28 27 26 24 23 21 19 18 17 16 15 14 13 12 11 11 10 9 9 10 10 10 11 11 10 9 8 6 6 7 6 6 5 4 3 2 2 3 3 4 4 5 6 7 7 6 7 8 8 8 7 7 7 8 9 10 10 10 11 11 11 11 11 10 9 9 9 10 10 11 12 13 14 14 14 13 12 11 10 11 12
23 24 25 25 25 25 26 25 24 23 21 19 18 17 16 14 13 13 13 12 10 9 9 9 10 11 11 11 11 10 10 9 7 6 5 6 5 4 4 3 2 0 1 1 1 3 5 6 7 7 7 6 5 7 9 8 7 7 8 8 8 9 10 9 9 11 11 11 10 9 9 8 8 9 9 10 11 11 12 13 13 13 12 10 10 10 11
23 24 24 24 23 23 23 22 21 21 19 18 17 16 14 13 12 12 12 11 9 9 10 11 11 11 11 10 10 10 10 9 7 6 6 5 5 4 3 2 1 1 2 1 1 3 5 6 7 8 8 6 4 6 9 10 7 6 7 8 8 9 10 9 9 10 10 10 9 8 9 9 9 9 9 9 10 10 11 11 12 12 11 10 10 11 11
24 23 22 22 22 22 21 20 20 19 17 16 15 14 13 12 11 11 11 10 10 10 11 11 10 11 11 10 10 11 11 10 8 7 7 7 5 4 3 2 2 2 2 1 2 3 4 6 7 9 8 5 4 6 9 10 8 6 6 8 8 9 10 9 9 9 9 9 8 8 9 10 9 8 8 9 10 10 10 10 10 11 11 10 10 11 11
23 22 21 20 21 20 19 18 18 17 15 15 14 13 12 11 11 10 11 11 11 11 11 10 9 10 10 11 11 11 11 10 9 8 7 6 4 3 3 3 3 3 2 2 3 4 5 7 8 8 5 4 4 6 8 9 8 6 6 7 8 8 9 10 10 9 9 8 8 8 9 9 9 8 9 9 10 10 10 10 10 10 10 10 9 10 10
22 21 20 20 19 18 17 17 16 15 14 14 13 12 11 11 11 11 11 11 12 12 11 10 9 10 10 10 11 11 11 11 9 8 6 4 3 3 4 5 5 4 4 5 5 5 6 8 7 5 4 4 4 5 6 8 7 6 5 6 8 8 9 10 11 10 9 8 8 9 9 9 9 9 10 10 10 11 11 11 11 11 11 10 10 9 9
21 20 20 20 18 17 16 16 15 15 13 13 13 13 12 12 11 11 11 12 12 12 11 10 10 10 10 10 10 10 10 10 8 7 5 4 4 4 4 5 5 5 5 6 6 6 7 7 6 4 3 4 3 3 5 7 8 6 5 6 8 9 10 11 11 10 9 9 9 9 9 9 9 10 10 11 11 11 11 11 12 12 11 11 10 10 9
21 20 20 19 18 17 16 16 15 15 14 13 12 13 12 11 11 11 11 11 12 12 11 10 9 9 9 9 9 9 9 8 8 6 5 5 5 4 4 4 5 6 6 6 6 7 7 7 5 4 3 4 4 4 5 7 7 6 6 7 8 9 10 11 11 10 9 9 9 9 9 9 10 10 11 11 11 11 12 12 12 11 10 10 10 10 9
22 21 21 20 19 17 17 16 15 15 15 14 13 13 13 12 11 11 11 11 11 11 11 10 10 10 9 8 8 8 8 7 7 7 6 6 6 5 4 4 5 6 7 6 6 6 6 6 6 5 4 4 5 5 6 6 5 5 6 7 8 8 9 10 10 10 9 9 9 9 10 10 10 10 11 11 11 11 12 11 11 11 10 10 9 9 8
22 22 21 20 19 17 17 16 16 16 16 16 15 15 13 12 10 10 10 11 11 11 11 10 10 10 9 8 8 8 8 7 7 7 7 7 7 7 6 5 5 6 7 6 6 5 4 3 5 5 4 4 5 5 6 6 5 6 7 7 7 8 8 9 10 9 9 9 10 10 10 10 10 10 11 11 10 10 11 11 11 12 12 10 9 8 7
23 23 21 19 18 18 17 17 16 16 17 17 17 17 15 13 11 10 10 11 11 11 11 10 10 10 9 8 8 8 7 7 7 7 7 6 7 8 7 6 6 6 7 6 5 4 3 4 5 6 5 4 5 5 6 6 6 6 7 7 7 7 7 8 9 9 9 9 10 10 11 11 10 10 10 9 9 9 11 12 13 13 12 9 7 7 6
24 23 21 19 19 19 18 18 18 18 17 18 19 19 16 13 11 10 10 10 10 11 10 10 9 9 8 8 8 7 7 6 6 6 6 6 5 6 7 7 7 7 8 8 6 5 4 6 7 6 5 5 6 6 6 6 6 7 7 7 6 7 7 7 8 8 9 9 10 10 11 10 9 9 9 9 9 10 11 12 13 14 12 8 6 6 6
25 24 22 21 21 20 18 18 19 18 18 19 20 20 17 14 12 11 10 10 10 10 9 9 8 8 8 8 7 7 6 6 6 6 6 6 6 7 8 8 9 9 9 9 7 6 6 7 7 6 5 6 6 6 6 7 7 7 7 7 7 7 7 7 7 7 8 9 10 11 11 10 9 8 9 9 10 10 11 12 13 14 12 7 5 5 5
25 24 23 23 21 19 19 20 20 20 20 20 20 19 17 15 13 12 11 10 10 9 8 8 8 7 7 8 7 7 6 6 6 6 6 7 8 9 10 10 10 10 10 9 7 7 7 8 7 6 6 6 6 6 7 7 8 8 8 8 8 8 7 7 7 7 7 9 10 10 11 11 9 9 9 9 9 9 10 11 11 12 11 8 6 5 5
25 24 24 22 20 20 22 23 23 21 20 19 18 17 17 16 15 13 12 11 10 9 8 7 7 7 7 7 7 7 6 6 6 6 7 7 7 8 9 10 10 9 9 8 7 7 7 6 7 7 8 8 8 8 7 8 8 9 9 9 9 8 8 7 7 7 7 8 9 9 9 10 10 9 9 9 9 9 10 10 10 10 9 8 6 6 6
22 22 21 21 20 21 23 24 22 19 19 18 16 15 15 16 15 14 13 12 11 10 8 8 8 8 8 8 7 7 8 8 7 7 8 8 8 8 9 9 9 8 6 6 7 7 7 6 7 8 9 8 8 8 8 9 10 11 11 10 10 9 8 8 8 8 7 8 8 8 9 9 9 9 8 8 8 9 9 9 9 9 9 8 7 8 8
21 21 21 21 21 21 22 21 20 18 18 17 16 15 16 16 15 14 14 13 12 11 9 8 8 8 8 8 8 8 9 9 9 10 10 10 10 9 9 8 8 7 6 6 7 7 7 7 8 9 9 9 9 9 10 10 10 10 11 11 11 10 9 10 10 9 8 7 7 7 7 8 8 8 7 7 8 9 9 9 10 10 10 9 9 9 8
21 20 20 20 19 19 19 19 18 17 16 16 16 16 16 16 15 14 14 14 13 11 10 9 8 8 8 8 7 8 9 9 10 10 10 10 9 9 8 8 7 7 6 7 7 7 7 8 8 8 7 7 8 8 9 9 9 8 9 9 9 9 9 9 8 7 7 7 7 7 7 7 7 6 7 7 8 9 10 11 10 10 10 10 9 8 5
21 19 18 18 18 17 17 17 17 16 16 16 16 16 16 16 14 14 15 15 14 11 10 9 9 8 8 8 8 8 9 10 10 9 9 9 8 8 7 7 6 7 7 7 7 7 7 8 8 7 6 6 6 7 8 8 8 7 7 8 7 7 8 9 8 9 9 10 8 7 7 8 7 7 7 9 10 11 11 12 11 10 10 9 9 7 5
Wind_Direction
79 71 81 91 98 97 93 94 95 94 99 106 115 95 26 322 181 148 129 130 133 139 141 131 124 123 117 114 115 115 113 108 103 98 91 85 78 71 67 60 54 53 48 43 38 32 27 23 22 23 21 19 21 22 21 20 22 22 16 7 6 6 3 2 2 1 2 4 3 4 6 360 342 328 321 314 304 292 277 270 268 264 261 261 260 257 254
80 76 86 94 101 98 84 76 77 81 85 86 88 84 73 77 87 105 120 118 113 123 127 117 115 117 113 112 112 111 108 103 98 93 88 84 79 72 66 62 56 50 47 43 37 33 29 22 19 17 14 13 14 18 21 22 23 25 23 14 7 7 6 3 1 360 2 3 1 2 8 8 357 340 328 321 314 302 286 273 269 267 265 263 262 259 254
84 87 95 97 99 95 84 72 67 76 82 79 83 87 81 83 93 107 115 111 105 110 115 114 116 115 112 111 109 107 105 99 93 89 85 82 79 73 69 66 61 52 47 43 37 33 27 22 20 17 14 13 11 12 18 23 26 27 24 17 9 8 8 5 3 3 3 3 2 1 4 8 6 356 342 330 323 312 295 280 270 267 266 264 263 263 259
94 109 114 109 104 97 84 67 56 66 78 76 81 86 72 102 124 127 124 122 122 124 120 117 116 115 112 109 108 107 103 97 92 89 87 84 80 77 73 68 62 56 49 42 37 33 28 24 22 20 17 16 14 12 14 17 21 21 18 14 11 10 10 7 5 6 5 4 5 3 2 6 8 6 358 345 333 320 306 293 280 269 263 260 257 257 257
115 140 131 120 127 123 95 56 37 54 86 93 93 89 90 117 134 139 139 133 130 131 128 120 116 115 110 109 113 111 105 101 98 94 92 89 85 82 77 69 63 58 51 44 39 35 31 28 26 23 22 20 18 16 15 14 15 15 15 14 13 13 12 9 8 8 7 7 8 7 7 7 8 10 9 1 351 340 326 312 296 280 268 260 254 252 253
143 159 156 171 177 157 107 28 347 50 99 105 103 97 98 108 107 91 101 119 127 129 127 121 117 113 109 111 114 109 105 106 105 101 99 95 91 86 79 72 65 59 55 49 43 39 35 32 29 26 25 24 21 19 18 17 17 18 17 15 15 15 13 11 11 9 10 11 9 9 11 10 9 12 13 11 7 0 350 337 318 298 282 268 259 256 255
138 155 174 184 174 152 72 86 117 102 105 107 99 89 85 94 101 101 109 120 125 121 117 116 114 112 112 110 106 102 104 107 107 105 102 99 95 87 79 74 67 61 57 51 47 42 37 33 30 27 26 25 23 22 22 21 20 21 20 18 17 16 14 13 13 12 12 12 10 11 13 13 12 14 14 14 13 10 5 358 347 331 310 285 270 265 262
133 155 183 171 138 108 100 115 116 115 123 121 103 79 66 85 113 119 119 119 119 117 116 116 116 115 111 102 95 98 105 107 107 107 104 101 96 87 80 75 68 63 57 53 50 45 38 34 31 28 27 25 24 24 25 24 24 24 23 21 20 18 16 15 15 15 15 14 13 14 14 14 15 15 14 14 13 12 9 5 1 353 340 318 293 280 276
148 137 110 101 130 146 137 146 157 143 131 125 108 91 74 87 120 128 126 123 122 122 121 123 124 120 108 96 92 101 108 109 109 107 104 101 95 88 84 78 73 69 62 58 54 47 42 38 34 31 28 27 27 27 27 27 27 27 26 24 21 19 18 17 16 17 17 17 17 16 15 16 16 16 16 16 14 12 8 4 2 359 352 342 327 308 295
177 136 116 131 163 177 172 173 175 163 122 55 117 115 99 105 133 138 135 130 130 131 131 134 136 128 107 96 109 120 117 113 113 109 104 101 96 92 89 83 78 74 66 61 56 50 46 41 36 34 31 29 30 29 29 29 28 28 28 26 23 21 19 17 15 14 16 16 16 16 16 16 16 17 18 19 18 17 13 7 3 359 355 348 339 329 317
170 166 156 156 152 124 146 158 161 161 163 166 156 143 128 139 145 144 140 136 137 140 139 142 148 145 121 119 136 136 128 121 117 111 106 104 97 93 93 89 82 77 69 63 57 50 46 40 37 35 32 33 34 32 30 29 28 28 28 26 25 23 21 19 16 14 14 15 15 16 15 14 14 15 17 19 20 20 21 18 13 8 6 360 347 339 331
164 175 153 124 86 68 136 150 155 158 161 180 196 202 174 157 152 148 144 141 141 142 142 145 155 158 138 140 143 141 133 123 118 114 111 109 100 94 94 90 83 78 70 60 53 47 43 38 36 35 34 36 38 35 32 30 28 27 26 24 24 24 23 23 22 19 18 16 15 16 15 14 13 13 14 17 17 18 22 25 24 21 23 25 18 5 349
149 157 136 104 82 111 141 143 147 153 162 192 220 196 137 149 152 149 145 141 140 143 147 147 117 94 116 132 135 134 130 123 118 116 113 110 100 94 93 88 82 75 65 56 51 46 42 39 37 37 37 37 38 36 33 31 28 26 24 23 23 22 23 24 24 24 23 20 19 19 17 16 14 14 15 18 18 18 20 24 27 29 31 35 35 32 28
141 145 133 115 100 127 149 143 141 156 180 189 127 110 131 143 146 144 142 141 140 141 137 126 112 108 116 125 128 129 129 124 120 118 113 108 100 94 89 83 78 72 62 57 53 47 44 42 41 40 40 39 37 35 33 30 27 25 24 23 21 21 22 22 22 24 25 25 25 24 22 19 17 15 15 17 19 21 22 23 26 29 32 36 39 40 40
143 146 142 134 120 147 160 154 144 163 291 115 123 126 133 139 140 139 139 139 138 132 124 120 118 117 120 125 126 127 127 124 121 119 114 109 103 96 88 79 75 72 66 61 57 51 47 45 44 42 40 39 37 34 31 28 25 23 23 22 21 20 21 21 21 21 22 25 27 26 23 22 21 20 17 16 18 20 23 24 24 24 26 30 35 39 41
228 154 140 94 97 135 152 151 120 97 97 123 133 133 133 138 141 139 137 135 134 131 126 123 122 122 125 127 128 128 126 123 121 118 113 110 104 97 90 82 77 74 70 67 63 56 50 47 46 43 40 38 36 33 30 25 22 21 20 19 20 20 19 19 20 20 20 23 25 25 24 23 23 23 20 18 20 21 21 23 24 23 24 25 28 36 42
47 75 95 103 104 114 118 101 98 108 114 127 137 136 136 141 144 141 136 134 135 134 129 126 126 127 129 129 129 127 124 122 120 116 112 109 103 97 92 85 79 76 72 70 66 57 50 47 45 44 41 37 35 32 29 25 22 20 18 17 17 18 17 17 19 19 20 21 23 24 26 26 25 25 23 20 21 22 22 23 24 24 26 27 28 32 38
93 70 77 101 107 105 104 102 107 114 120 129 135 136 138 142 143 141 137 135 136 136 132 129 129 130 131 130 128 126 123 120 119 115 112 109 104 98 93 85 79 76 72 69 63 55 48 42 41 41 40 37 35 31 28 26 23 21 20 19 18 17 17 17 17 17 19 21 23 24 27 29 27 25 24 23 23 24 25 24 25 26 27 28 29 30 32
139 82 82 100 105 108 111 112 112 115 120 128 132 134 138 140 139 138 136 135 136 136 134 132 131 130 131 130 126 124 122 120 119 117 114 109 101 94 87 79 77 75 69 65 59 51 44 39 37 37 36 36 35 31 26 24 22 21 21 21 20 18 17 17 17 16 16 19 21 21 24 30 32 30 28 26 25 29 33 31 27 26 26 28 29 29 29
110 103 113 110 104 108 117 119 121 125 127 128 130 130 134 136 134 133 134 135 135 135 134 133 131 129 130 129 127 126 124 122 120 116 112 106 98 89 79 73 77 77 70 66 60 51 45 40 37 36 33 32 31 29 27 23 21 21 22 22 21 20 19 18 19 18 16 18 19 17 17 24 29 30 31 30 28 33 39 41 38 32 29 31 34 33 32
99 105 126 125 109 107 118 123 126 132 134 133 132 130 131 131 131 131 133 133 134 134 134 133 131 129 129 129 127 126 123 120 118 112 107 103 93 81 71 68 74 82 79 71 62 55 49 42 38 34 30 26 27 30 28 23 21 23 23 22 21 21 20 20 21 20 19 18 17 16 15 15 17 21 26 29 30 33 38 43 44 41 37 39 44 42 41
136 146 157 153 132 120 134 135 131 134 136 134 132 130 130 130 132 133 133 131 131 132 133 133 131 129 128 128 126 123 119 117 115 109 105 100 88 78 74 72 74 79 79 73 66 58 52 44 38 33 29 27 29 32 30 26 24 24 24 23 23 21 20 20 21 20 20 19 18 16 16 14 11 12 17 22 26 30 36 40 43 43 40 41 46 47 45
152 156 162 160 129 123 136 137 131 133 135 134 132 132 132 132 134 135 133 131 131 131 131 132 131 127 126 125 122 119 115 112 108 103 99 96 87 81 80 78 78 80 78 74 67 58 51 43 36 31 30 30 33 34 31 28 27 26 25 25 24 21 20 21 21 21 19 19 18 16 14 14 11 9 10 13 16 22 29 33 37 41 40 39 41 46 46
138 148 156 148 124 127 135 135 131 133 134 133 132 132 133 134 135 135 134 133 133 131 129 129 128 125 123 121 119 115 111 108 106 103 98 94 90 85 81 82 85 85 80 73 64 55 47 41 36 32 30 31 33 33 30 29 28 26 25 26 25 23 23 22 21 21 20 18 19 17 15 13 11 8 7 8 9 12 18 22 27 33 38 38 37 41 46
139 140 141 132 125 127 130 130 130 132 134 133 132 133 134 135 134 133 132 131 132 131 129 128 127 124 120 117 113 109 107 107 107 101 93 89 88 86 86 91 93 89 81 70 61 52 44 39 36 34 30 30 33 34 32 31 30 26 24 27 26 25 27 26 21 20 20 19 18 18 17 14 12 9 4 2 4 8 12 14 17 22 29 35 35 35 40
134 133 131 126 123 126 130 131 131 134 134 134 133 133 135 135 133 131 130 130 130 130 128 127 126 122 118 114 110 107 107 105 101 96 93 93 93 93 98 101 98 92 83 70 57 51 46 41 38 35 31 29 31 34 35 34 31 26 24 26 25 23 25 27 22 18 18 18 17 17 17 15 13 10 6 2 1 4 7 10 11 11 16 27 34 34 33
133 135 132 127 127 133 136 134 135 136 136 136 135 134 134 134 132 130 129 129 130 129 127 126 125 122 119 116 111 108 105 101 98 98 100 100 99 102 105 103 95 89 84 70 54 49 45 41 40 38 32 29 30 33 36 35 32 28 26 26 22 18 19 23 20 14 12 14 14 12 12 13 13 11 8 5 1 1 2 6 7 4 4 12 25 31 30
135 138 136 133 134 137 137 135 135 136 136 136 136 135 134 133 132 131 131 131 131 131 130 129 127 124 123 122 115 109 106 104 104 103 98 97 100 103 105 100 91 84 80 66 51 46 42 39 42 38 30 27 29 31 34 37 33 28 26 26 23 17 13 13 11 7 4 4 7 9 10 11 12 11 10 8 4 1 360 1 2 360 357 358 6 16 24
135 137 135 132 133 135 135 135 135 135 134 135 135 135 135 135 134 133 133 134 134 134 135 136 135 132 131 129 124 119 117 115 111 103 97 98 101 104 105 98 86 79 75 61 48 43 39 38 39 34 26 26 28 29 32 36 34 28 24 23 21 15 10 7 3 1 358 355 358 7 10 7 7 11 13 12 11 8 3 359 356 353 352 356 359 1 5
136 136 134 133 135 135 135 135 135 135 135 137 137 138 139 138 137 137 138 139 139 140 141 142 142 141 139 136 133 129 125 121 115 108 101 99 101 108 110 99 82 74 69 52 39 36 35 35 34 30 26 26 28 30 31 32 28 23 22 19 10 359 356 359 358 355 354 352 353 360 2 359 2 11 14 12 13 12 7 1 356 351 350 354 357 357 355
136 135 135 135 136 135 134 135 136 137 138 140 141 142 143 142 141 142 144 145 146 146 148 149 150 150 148 147 143 138 132 125 118 113 106 100 101 109 111 105 101 95 71 45 31 27 31 32 28 25 25 27 29 31 31 28 22 15 12 13 4 349 345 352 357 354 352 352 351 352 354 355 359 7 10 11 12 11 7 2 358 353 350 351 351 352 353
133 133 134 135 136 136 136 137 139 140 143 145 145 145 147 147 145 146 149 151 151 153 155 157 157 156 156 156 153 147 140 132 125 120 113 104 99 101 104 108 114 105 79 57 39 31 34 34 23 20 24 28 29 28 26 24 19 9 1 1 360 350 345 351 359 359 354 351 348 346 348 350 354 360 6 8 8 8 7 5 0 355 354 352 350 349 349
137 138 141 142 142 141 141 143 144 145 147 149 148 148 149 150 149 151 154 156 157 159 162 164 164 164 164 163 162 161 154 145 135 126 119 111 103 100 105 117 124 111 83 62 42 31 30 28 19 17 23 26 24 24 23 18 10 4 358 356 355 351 347 351 358 0 355 350 348 346 343 344 348 354 0 4 5 5 6 6 3 0 359 356 352 350 348
143 143 145 146 145 145 145 147 148 148 149 151 152 153 153 154 155 157 160 161 163 167 170 171 171 172 172 170 171 172 165 156 148 138 127 119 112 106 107 116 128 117 63 42 33 25 20 15 11 11 14 16 15 16 16 12 5 1 360 357 356 355 352 350 353 356 353 349 346 345 342 340 342 346 351 355 360 4 5 4 3 3 1 358 353 351 348
142 141 142 144 145 145 146 148 150 152 153 154 156 158 160 161 162 165 168 170 171 174 177 176 177 180 181 179 180 179 172 166 166 161 144 131 126 122 116 116 126 160 314 328 7 9 5 3 2 1 1 2 3 1 2 3 360 353 354 358 357 354 352 349 348 348 349 347 344 342 340 337 334 336 341 346 351 356 0 3 4 3 2 359 353 348 345
144 143 143 145 147 148 149 150 153 155 156 157 159 163 166 168 170 173 177 179 179 178 177 178 180 183 185 186 186 182 176 175 179 173 157 148 147 143 135 139 196 267 269 244 275 336 348 350 349 351 353 355 349 345 351 357 355 342 344 352 354 350 349 349 346 345 348 348 346 344 344 342 337 333 334 339 344 348 352 357 0 360 357 354 349 346 345
148 148 147 149 151 153 153 154 156 158 160 162 164 166 168 171 174 179 181 181 179 176 174 176 179 182 186 190 188 182 181 186 187 173 160 158 160 160 163 189 228 257 265 262 293 320 327 327 333 343 350 353 335 326 339 351 357 348 340 343 344 345 348 347 343 342 345 347 348 347 346 345 345 338 333 334 338 340 343 347 350 349 348 348 348 347 345
152 154 153 154 156 157 157 159 162 164 165 165 165 167 170 173 176 179 179 176 175 172 170 171 174 178 185 191 189 185 184 185 178 168 164 167 175 189 210 231 245 253 257 278 300 305 302 309 324 338 342 330 317 321 333 347 1 2 349 341 341 344 346 345 342 340 338 337 339 340 339 342 345 343 338 338 338 335 334 336 337 339 342 345 346 346 345
158 159 160 161 162 162 163 166 168 169 169 168 169 171 173 172 172 173 170 167 168 169 166 163 163 166 172 178 179 178 177 175 172 173 182 190 199 220 240 249 250 251 261 281 294 296 296 307 320 328 313 304 315 325 331 344 0 5 350 341 343 344 343 342 341 338 332 327 326 327 330 335 339 339 337 337 337 336 334 333 333 334 335 336 337 342 345
168 168 168 169 170 170 171 174 176 178 178 176 173 174 173 171 170 168 165 165 168 169 166 165 164 164 167 171 172 173 175 178 182 188 195 201 211 230 243 244 246 260 276 286 290 290 295 304 311 303 287 295 309 312 322 341 358 360 344 339 344 344 342 343 343 338 332 327 322 319 322 325 327 330 332 332 334 336 336 333 333 334 332 330 333 339 343
175 175 175 177 177 177 179 181 183 185 185 180 176 175 174 172 171 172 171 172 174 175 175 177 179 179 179 179 178 176 179 187 193 196 198 203 213 231 245 243 251 272 285 289 290 293 296 301 300 283 267 272 280 294 320 342 351 346 334 335 339 340 341 344 344 340 337 332 325 321 319 317 317 322 327 328 330 333 333 333 335 336 332 329 330 334 338
179 180 181 181 182 183 183 183 184 186 186 183 179 177 175 175 176 179 180 182 184 186 189 191 193 193 190 188 186 186 189 194 199 205 212 217 223 240 254 250 255 273 284 288 294 300 304 302 294 282 266 258 267 288 320 339 337 328 326 330 332 336 342 345 345 343 340 337 332 327 323 318 315 316 319 323 327 331 333 336 337 335 330 328 328 329 336
184 185 186 186 187 188 189 188 188 188 187 185 182 180 178 178 180 182 184 186 189 191 194 197 200 200 198 196 197 201 203 205 209 216 223 228 235 246 249 240 249 270 280 285 295 302 299 279 270 273 275 267 267 286 315 326 320 317 322 325 327 331 338 344 347 346 342 338 335 332 328 323 319 316 317 321 326 331 335 338 338 333 329 327 325 324 332
191 191 192 193 194 195 196 194 193 191 189 187 185 183 181 180 181 182 183 185 187 190 193 196 198 199 199 200 203 206 207 207 211 216 221 228 241 252 250 241 246 263 273 282 293 300 286 263 263 272 278 272 270 285 305 307 303 309 317 318 320 324 331 340 346 346 343 340 338 335 331 326 321 319 322 324 326 331 335 337 337 336 332 325 318 321 329
198 199 200 201 202 203 202 199 196 194 190 188 186 185 184 184 185 185 185 187 189 191 193 193 194 196 198 199 201 204 207 207 208 214 222 226 232 242 250 253 258 264 273 284 293 290 275 272 277 279 275 268 274 285 292 289 291 302 309 310 312 316 320 328 335 339 340 341 338 336 335 330 322 319 323 324 324 329 333 333 335 338 335 324 313 322 332
206 207 208 210 211 210 206 201 197 194 190 187 186 187 188 189 189 190 191 193 192 192 193 196 198 199 200 200 201 206 212 213 213 216 223 226 224 228 243 259 267 268 274 286 291 281 269 275 282 282 273 270 278 285 284 279 284 293 299 302 307 309 309 313 322 330 335 336 334 334 336 334 327 321 320 320 322 326 329 331 335 340 338 324 304 312 328
211 213 215 217 216 212 205 197 192 190 188 187 188 190 191 193 195 196 196 195 194 193 195 198 200 199 199 200 204 208 211 215 220 223 227 230 235 243 254 265 271 272 276 282 282 273 269 276 279 275 271 274 283 285 281 277 280 287 291 295 299 300 299 302 308 315 323 329 332 333 332 331 327 323 321 321 323 325 327 330 336 339 335 321 301 296 307
215 216 216 215 212 206 199 194 190 189 189 190 192 194 195 196 198 199 198 196 195 195 197 199 200 200 201 203 207 212 216 217 221 225 228 233 243 256 265 269 271 272 276 280 279 276 275 275 273 270 271 277 284 286 281 277 280 285 289 291 291 291 291 294 298 304 313 322 327 328 326 324 322 320 320 323 324 323 323 327 331 332 330 322 303 286 288
207 206 205 203 199 196 193 190 190 191 193 194 195 197 197 198 200 201 201 199 199 200 205 206 204 207 213 218 219 222 225 223 220 223 234 245 254 260 265 268 269 267 266 269 275 276 274 270 269 271 274 277 280 281 279 280 284 286 288 288 287 284 282 280 280 286 299 312 320 324 324 323 322 320 320 322 324 322 323 324 325 326 325 316 294 286 293
191 191 191 190 189 189 189 190 193 195 196 196 198 199 199 200 201 202 201 201 202 205 210 210 205 206 215 221 221 224 231 234 233 237 247 257 261 259 258 258 259 255 249 249 258 267 271 270 270 272 274 278 280 280 281 285 288 289 289 288 286 281 277 276 278 284 291 300 309 317 321 323 323 322 323 326 326 325 323 318 311 313 318 312 295 293 311
187 187 187 187 188 191 193 196 198 199 197 197 200 202 202 202 202 201 200 202 204 206 208 208 206 206 210 214 219 228 238 242 244 247 254 260 259 253 248 245 246 248 249 248 250 255 262 266 269 270 271 275 280 284 287 290 293 295 295 294 288 280 273 272 274 277 279 283 292 302 310 314 317 320 321 324 327 330 332 327 313 303 306 310 302 295 307
188 186 187 189 190 193 195 197 199 199 198 199 202 203 202 200 202 204 205 205 206 207 208 209 211 212 212 213 218 229 239 245 248 251 253 252 246 239 236 237 241 247 252 252 251 251 256 260 264 267 268 270 276 284 289 293 297 301 301 299 294 286 278 271 266 263 266 272 280 286 290 294 299 301 304 309 316 322 328 332 325 308 295 296 298 293 286